Regional Weather Roundup
Issued by NWS

Home | Current Version | Previous Version | Graphics & Text | Print | Product List | Glossary On
Versions: 1 2 3 4 5 6 7 8 9 10 11 12 13 14 15 16 17 18 19 20 21 22 23 24 25 26 27 28 29 30 31 32 33 34 35 36 37 38 39 40 41 42 43 44 45 46 47 48 49 50
000
ASUS43 KMKX 230221
RWRWI

WISCONSIN REGIONAL WEATHER ROUNDUP
NATIONAL WEATHER SERVICE MILWAUKEE/SULLIVAN WI
900 PM CDT FRI MAY 22 2015

NOTE: "FAIR" INDICATES FEW OR NO CLOUDS BELOW 12,000 FEET WITH NO
SIGNIFICANT WEATHER AND/OR OBSTRUCTIONS TO VISIBILITY.

WIZ001-002-006>008-014>016-023>028-230300-
NORTHWEST WISCONSIN

CITY           SKY/WX    TMP DP  RH WIND       PRES   REMARKS
SUPERIOR ARPT  CLEAR     42  35  75 CALM      30.18R
ASHLAND        CLEAR     55  37  50 S6        30.17R
HAYWARD        CLEAR     60  37  42 CALM      30.19R
SIREN          CLEAR     59  40  48 CALM      30.20R
CUMBERLAND     CLEAR     59  37  44 S6        30.20S
RICE LAKE      CLEAR     62  39  42 S3        30.21S
CHETEK         CLEAR     57  42  56 E6        30.21R
LADYSMITH      CLEAR     60  39  46 S3        30.22S
EAU CLAIRE     MOCLDY    60  37  42 CALM      30.20R
MENOMONIE      PTCLDY    63  40  43 CALM      30.21R
NEW RICHMOND   PTCLDY    61  34  36 CALM      30.21R
OSCEOLA        PTCLDY    61  44  53 CALM      30.22R
$$

WIZ003>005-009-010-017-018-230300-
NORTH CENTRAL WISCONSIN

CITY           SKY/WX    TMP DP  RH WIND       PRES   REMARKS
MANITOWISH WTR CLEAR     51  33  51 CALM      30.21R
ARBOR VITAE    CLEAR     55  33  42 CALM      30.22R
WOODRUFF       CLEAR     55  33  42 CALM      30.22R
RHINELANDER    CLEAR     52  31  44 CALM      30.22R
EAGLE RIVER    CLEAR     50  30  46 CALM      30.22R
LAND O LAKES   CLEAR     48  31  50 CALM      30.22S
PHILLIPS       CLEAR     53  38  56 CALM      30.21R
TOMAHAWK       CLEAR     51  34  52 CALM      30.21S
MEDFORD        CLEAR     56  37  49 SW3       30.22R
MERRILL        CLEAR     54  40  58 CALM      30.22R
$$

WIZ029-030-035-036-043>047-230300-
CENTRAL WISCONSIN

CITY           SKY/WX    TMP DP  RH WIND       PRES   REMARKS
WAUSAU         CLEAR     61  39  44 SW3       30.20R
MOSINEE        CLEAR     57  37  47 CALM      30.23R
MARSHFIELD     PTCLDY    61  36  39 CALM      30.22R
STEVENS POINT  PTCLDY    54  36  50 CALM      30.23R
WAUPACA        PTCLDY    58  37  46 CALM      30.23R
WAUTOMA        MOCLDY    58  40  51 CALM      30.23R
WISC RAPIDS    LGT RAIN  60  34  37 CALM      30.23R
CAMP DOUGLAS   CLOUDY    54  48  81 NW1       30.21R
$$

WIZ011>013-019>022-031-037>040-048>050-230300-
NORTHEAST WISCONSIN

CITY           SKY/WX    TMP DP  RH WIND       PRES   REMARKS
ANTIGO         CLEAR     58  35  41 CALM      30.22R
SHAWANO        CLEAR     59  35  40 S7        30.22R
OCONTO         CLEAR     50  33  51 SE3       30.24R
STURGEON BAY   CLEAR     45  23  42 SE7       30.29R
GREEN BAY      PTCLDY    54  30  40 S8        30.24R
MANITOWOC      CLEAR     48  25  40 S9        30.27R
APPLETON       PTCLDY    55  34  44 SE10      30.24R
CLINTONVILLE   PTCLDY    61  34  36 SW3       30.21R
OSHKOSH        MOCLDY    53  31  42 S12       30.25R
$$

WIZ032>034-041-042-053>061-230300-
SOUTHWEST WISCONSIN

CITY           SKY/WX    TMP DP  RH WIND       PRES   REMARKS
LA CROSSE      CLOUDY    63  41  44 NE3       30.19S
SPARTA         CLOUDY    56  45  66 E3        30.22S
VIROQUA        CLOUDY    62  35  35 CALM      30.22R
BOSCOBEL       CLOUDY    59  48  67 CALM      30.20S
PRAIRIE DU CHI CLOUDY    63  48  59 CALM      30.19R
PLATTEVILLE    CLOUDY    67  37  33 SE3       30.21R
$$

WIZ056-057-062-063-064-067-068-230300-
SOUTH CENTRAL WISCONSIN

CITY           SKY/WX    TMP DP  RH WIND       PRES   REMARKS
REEDSBURG      CLOUDY    60  44  55 CALM      30.21R
BARABOO/DELLS  CLOUDY    55  40  57 CALM      30.22R
LONE ROCK      CLOUDY    61  42  49 CALM      30.21R
MINERAL POINT  CLOUDY    68  32  26 CALM      30.22S
MADISON        CLOUDY    61  40  45 SE13      30.23R
MIDDLETON      CLOUDY    60  40  47 CALM      30.22S
WATERTOWN      MOCLDY    56  32  40 SE7       30.26R
MONROE         CLOUDY    64  43  45 E3        30.22S
JANESVILLE     CLEAR     61  32  33 E9        30.24R
$$

WIZ051-052-058>065-066-070>072-230300-
SOUTHEAST WISCONSIN

CITY           SKY/WX    TMP DP  RH WIND       PRES   REMARKS
MILWAUKEE      MOCLDY    48  29  47 S7        30.29R
WAUKESHA       MOCLDY    50  25  37 SE8       30.29R
MILWAUKEE/TIMM CLEAR     50  21  32 S5        30.29S
RACINE         MOCLDY    48  30  49 SE5       30.30R
BURLINGTON     CLOUDY    49  26  39 E5        30.28S
KENOSHA        CLOUDY    48  29  47 E7        30.29R
FOND DU LAC    MOCLDY    53  26  35 SE10      30.25R
SHEBOYGAN      PTCLDY    46  27  47 S8        30.28R
WEST BEND      MOCLDY    46  23  39 CALM      30.28R
JUNEAU           N/A     54  32  43 SE10      30.27R HAZE
$$

LSZ147-162-230300-
LAKE SUPERIOR

STATION/POSITION TIME  TEMP    WIND        PRES    WAVE
                       AIR SEA DIR/SP/G            HT/PER
                 (UTC) (F)     (DEG/KT/KT) (MB)    (FT/S)
W MID LAKE BUOY  0150   43 36   10/  4/  4   N/A     0
DEVILS ISLAND    0200   41      20/  7/  8   N/A
PORT WING        0100   42      20/  7/  8   N/A
SAXON HARBOR     0100   62      CALM  /  1   N/A
$$

LMZ867-665-643>646-230300-
LAKE MICHIGAN

STATION/POSITION TIME  TEMP    WIND        PRES    WAVE
                       AIR SEA DIR/SP/G            HT/PER
                 (UTC) (F)     (DEG/KT/KT) (MB)    (FT/S)
CHAMBERS ISLAND  0100   51     110/  4/  6   N/A
N MID LAKE BUOY  0150   42 36  210/  4/  4   N/A     0
NORTHPORT PIER   0100   49     150/  7/ 10   N/A
SISTER BAY       0117   47     130/  7/  9   N/A
KEWAUNEE LAKESHO 0100   46     170/  7/  8   N/A
SHEBOYGAN LAKESH 0200   49     200/ 10/ 12   N/A
PORT WASHINGTON  0140   48     190/  2/  4   N/A
ATWATER BUOY     0200   47 45  180/  8/ 10   N/A
MILWAUKEE LAKESH 0200   48     180/  5/  6   N/A
S MID LAKE BUOY  0150   44 38   80/  8/  8   N/A     0
KENOSHA   LAKESH 0200   48     130/  3/  6   N/A
$$

TC  - TEMPERATURE IN CELSIUS
VSB - VISIBILITY IN STATUTE MILES
WCI - WIND CHILL INDEX
HX  - HEAT INDEX



USA.gov is the U.S. government's official web portal to all federal, state and local government web resources and services.